Weather History for Escanaba, MI

Change the Weather History Date:

Friday, December 9, 2011

  Actual Average Record
Temperature  
Mean Temperature 14 °F -  
Max Temperature 19 °F 31 °F 52 °F (1990)
Min Temperature 8 °F 19 °F -5 °F (1958)
Degree Days  
Heating Degree Days 52    
Moisture  
Dew Point -1 °F    
Average Humidity 55    
Maximum Humidity 67    
Minimum Humidity 41    
Precipitation  
Precipitation 0.00 in - - ()
Sea Level Pressure  
Sea Level Pressure 30.17 in    
Wind  
Wind Speed 8 mph (West)    
Max Wind Speed 17 mph    
Max Gust Speed 23 mph    
Visibility 10 miles    
Events      
Averages and records for this station are not official NWS values.
T = Trace of Precipitation, MM = Missing Value Source: NWS Daily Summary

Daily Weather History Graph

Daily Weather History Graph

Search for Another Location

Airport:

Trip Planner

Search our weather history database for the weather conditions in past years. The results will help you decide how hot, cold, wet, or windy it might be!

Date:

Astronomy

Dec. 09, 2011 Rise Set
Actual Time 8:17 AM EST 5:04 PM EST
Civil Twilight 7:42 AM EST 5:38 PM EST
Nautical Twilight 7:05 AM EST 6:15 PM EST
Astronomical Twilight 6:29 AM EST 6:51 PM EST
Moon 4:26 PM EST (12/9) 7:24 AM EST (12/9)
Length of Visible Light 9h 55m
Length of Day
8h 46m
Waxing Gibbous, 99% of the Moon is Illuminated
Dec 9
Waxing Gibbous
Dec 10
Full
Dec 17
Last Quarter
Dec 24
New
Jan 1
First Quarter

Hourly Weather History & Observations

Time (EST) Temp. Windchill Dew Point Humidity Pressure Visibility Wind Dir Wind Speed Gust Speed Precip Events Conditions
12:15 AM 10.4 °F 2.2 °F 1.4 °F 67% 30.09 in 10.0 mi WSW 4.6 mph - N/A   Clear
12:35 AM 10.4 °F 2.2 °F 1.4 °F 67% 30.09 in 10.0 mi WSW 4.6 mph - N/A   Clear
12:55 AM 10.4 °F - 1.4 °F 67% 30.09 in 10.0 mi Calm Calm - N/A   Clear
1:15 AM 10.4 °F 2.2 °F -0.4 °F 62% 30.09 in 10.0 mi WSW 4.6 mph - N/A   Clear
1:35 AM 10.4 °F 4.0 °F 1.4 °F 67% 30.09 in 10.0 mi WSW 3.5 mph - N/A   Clear
2:15 AM 8.6 °F -1.3 °F -0.4 °F 67% 30.09 in 10.0 mi WSW 5.8 mph - N/A   Clear
2:35 AM 8.6 °F -2.6 °F -0.4 °F 67% 30.09 in 10.0 mi WSW 6.9 mph - N/A   Clear
3:35 AM 8.6 °F -2.6 °F -0.4 °F 67% 30.09 in 10.0 mi WSW 6.9 mph - N/A   Clear
3:55 AM 10.4 °F -1.5 °F -0.4 °F 62% 30.09 in 10.0 mi WSW 8.1 mph - N/A   Clear
4:15 AM 10.4 °F -2.4 °F -0.4 °F 62% 30.09 in 10.0 mi WSW 9.2 mph - N/A   Clear
4:35 AM 10.4 °F -0.4 °F -0.4 °F 62% 30.09 in 10.0 mi WSW 6.9 mph - N/A   Clear
4:55 AM 10.4 °F -0.4 °F -0.4 °F 62% 30.09 in 10.0 mi WSW 6.9 mph - N/A   Clear
5:15 AM 10.4 °F -1.5 °F -0.4 °F 62% 30.10 in 10.0 mi WSW 8.1 mph - N/A   Clear
5:35 AM 8.6 °F -2.6 °F -0.4 °F 67% 30.10 in 10.0 mi WSW 6.9 mph - N/A   Clear
8:35 AM 8.6 °F -2.6 °F -2.2 °F 62% 30.14 in 10.0 mi WSW 6.9 mph - N/A   Clear
9:55 AM 10.4 °F -5.4 °F -0.4 °F 62% 30.14 in 10.0 mi West 13.8 mph 17.3 mph N/A   Clear
10:15 AM 12.2 °F -3.7 °F -0.4 °F 57% 30.15 in 10.0 mi West 15.0 mph - N/A   Clear
10:35 AM 12.2 °F -2.5 °F -0.4 °F 57% 30.15 in 10.0 mi West 12.7 mph - N/A   Clear
10:55 AM 14.0 °F -2.5 °F -0.4 °F 53% 30.15 in 10.0 mi West 17.3 mph 21.9 mph N/A   Clear
11:15 AM 14.0 °F -0.2 °F -0.4 °F 53% 30.16 in 10.0 mi West 12.7 mph - N/A   Clear
11:35 AM 15.8 °F 2.7 °F -0.4 °F 49% 30.16 in 10.0 mi West 11.5 mph 17.3 mph N/A   Clear
11:55 AM 15.8 °F 0.9 °F 1.4 °F 53% 30.16 in 10.0 mi WNW 15.0 mph - N/A   Clear
12:15 PM 17.6 °F 5.0 °F 1.4 °F 49% 30.16 in 10.0 mi West 11.5 mph - N/A   Clear
12:35 PM 17.6 °F 5.7 °F -0.4 °F 45% 30.16 in 10.0 mi West 10.4 mph - N/A   Clear
1:15 PM 19.4 °F 5.5 °F 1.4 °F 46% 30.15 in 10.0 mi West 15.0 mph 20.7 mph N/A   Clear
1:35 PM 19.4 °F 5.5 °F -0.4 °F 42% 30.15 in 10.0 mi West 15.0 mph 18.4 mph N/A   Clear
2:15 PM 19.4 °F 7.2 °F -0.4 °F 42% 30.16 in 10.0 mi West 11.5 mph 23.0 mph N/A   Clear
2:35 PM 19.4 °F 5.5 °F -0.4 °F 42% 30.15 in 10.0 mi WNW 15.0 mph - N/A   Clear
2:55 PM 19.4 °F 6.6 °F -0.4 °F 42% 30.16 in 10.0 mi WNW 12.7 mph - N/A   Clear
3:15 PM 19.4 °F 5.0 °F -0.4 °F 42% 30.16 in 10.0 mi West 16.1 mph - N/A   Clear
3:35 PM 19.4 °F 6.6 °F -0.4 °F 42% 30.16 in 10.0 mi West 12.7 mph 20.7 mph N/A   Clear
3:55 PM 19.4 °F 6.6 °F -0.4 °F 42% 30.16 in 10.0 mi West 12.7 mph 18.4 mph N/A   Clear
5:15 PM 15.8 °F 3.4 °F -2.2 °F 45% 30.20 in 10.0 mi West 10.4 mph - N/A   Clear
5:35 PM 15.8 °F 7.2 °F -4.0 °F 41% 30.21 in 10.0 mi WSW 5.8 mph - N/A   Clear
5:55 PM 14.0 °F 6.5 °F -2.2 °F 49% 30.21 in 10.0 mi WSW 4.6 mph - N/A   Clear
6:15 PM 12.2 °F 2.9 °F -2.2 °F 53% 30.22 in 10.0 mi West 5.8 mph - N/A   Clear
6:35 PM 12.2 °F 1.7 °F -2.2 °F 53% 30.23 in 10.0 mi WSW 6.9 mph - N/A   Clear
7:15 PM 12.2 °F 0.7 °F -2.2 °F 53% 30.24 in 10.0 mi West 8.1 mph - N/A   Clear
7:35 PM 12.2 °F 0.7 °F -2.2 °F 53% 30.25 in 10.0 mi West 8.1 mph - N/A   Clear
7:55 PM 10.4 °F -0.4 °F -2.2 °F 57% 30.26 in 10.0 mi West 6.9 mph - N/A   Clear
8:15 PM 10.4 °F 2.2 °F -2.2 °F 57% 30.26 in 10.0 mi West 4.6 mph - N/A   Clear
8:55 PM 10.4 °F 0.8 °F -4.0 °F 52% 30.27 in 10.0 mi West 5.8 mph - N/A   Clear
9:15 PM 10.4 °F -0.4 °F -4.0 °F 52% 30.28 in 10.0 mi West 6.9 mph - N/A   Clear
9:35 PM 10.4 °F -0.4 °F -4.0 °F 52% 30.28 in 10.0 mi West 6.9 mph - N/A   Clear
9:55 PM 10.4 °F -1.5 °F -4.0 °F 52% 30.28 in 10.0 mi West 8.1 mph - N/A   Clear
10:15 PM 10.4 °F -1.5 °F -2.2 °F 57% 30.28 in 10.0 mi West 8.1 mph - N/A   Clear
11:15 PM 10.4 °F -3.3 °F -2.2 °F 57% 30.28 in 10.0 mi West 10.4 mph - N/A   Clear
11:35 PM 10.4 °F -1.5 °F -4.0 °F 52% 30.28 in 10.0 mi West 8.1 mph - N/A   Clear
11:55 PM 8.6 °F -4.7 °F -2.2 °F 62% 30.28 in 10.0 mi West 9.2 mph - N/A   Clear